Regional Weather Roundup
Issued by NWS Charleston, WV

Home | Current Version | Previous Version | Graphics & Text | Print | Product List | Glossary On
Versions: 1 2 3 4 5 6 7 8 9 10 11 12 13 14 15 16 17 18 19 20 21 22 23 24 25 26 27 28 29 30 31 32 33 34 35 36 37 38 39 40 41 42 43 44 45 46 47 48 49 50
000
ASUS41 KRLX 051610
RWRRLX
West Virginia Regional Weather Roundup
National Weather Service Charleston WV
1100 AM EST THU MAR 05 2015

Note: "fair" indicates few or no clouds below 12,000 feet with no
significant weather and/or obstructions to visibility.

WVZ003-051700-
Northern Panhandle of West Virginia

CITY           SKY/WX    TMP DP  RH WIND       PRES   REMARKS
WHEELING       FLURRIES  16   5  62 NW9       30.25R WCI   4
$$

WVZ009-051700-
Northwest West Virginia

CITY           SKY/WX    TMP DP  RH WIND       PRES   REMARKS
PARKERSBURG    LGT SNOW  18  14  84 N8        30.30S VSB 3/4 WCI   8
$$

WVZ006-051700-
Western West Virginia

CITY           SKY/WX    TMP DP  RH WIND       PRES   REMARKS
HUNTINGTON     SNOW      19  16  88 N10       30.28R VSB 1/4 WCI   7
$$

WVZ015-051700-
West Central West Virginia

CITY           SKY/WX    TMP DP  RH WIND       PRES   REMARKS
CHARLESTON     LGT SNOW  22  18  85 N7        30.24R VSB 1
$$

WVZ022-031-051700-
North Central West Virginia

CITY           SKY/WX    TMP DP  RH WIND       PRES   REMARKS
CLARKSBURG     LGT SNOW N/A N/A N/A N10       30.21F VSB 1
MORGANTOWN     NOT AVBL
$$

WVZ025-035-042-045-051700-
Southern West Virginia

CITY           SKY/WX    TMP DP  RH WIND       PRES   REMARKS
BECKLEY        SNOW      22  19  89 NW7       30.08R VSB 1/2
LOGAN          LGT SNOW  21  19  93 N6        30.16R
BLUEFIELD      MIX PCPN  27  22  81 NW6       30.05S
LEWISBURG      LGT SNOW  29  28  93 NW5       30.05R VSB 3/4
$$

WVZ047-051700-
Northern Mountains of West Virginia

CITY           SKY/WX    TMP DP  RH WIND       PRES   REMARKS
ELKINS         HVY SNOW  21  19  92 N5        30.11F VSB 1/4
$$

WVZ052-051700-
Eastern Panhandle of West Virginia

CITY           SKY/WX    TMP DP  RH WIND       PRES   REMARKS
MARTINSBURG    HVY SNOW  26  22  84 NW14G22   30.20S VSB 1/4
PETERSBURG     CLOUDY    26  24  94 MISG        N/A
$$



USA.gov is the U.S. government's official web portal to all federal, state and local government web resources and services.